Temp
60 59 58 58 58 59 59 59 58 58 59 60 60 60 59 59 59 58 58 58 57 57 57 57 57 57 57 57 57 56 56 55 55 54 54 54 54 54 54 54 54 53 53 53 52 52 51 51 51 51 51 50 50 50 50 50 49 49 49 49 49 48 47 46 45 45 46 46 46
60 60 58 56 56 58 59 59 58 58 59 60 60 60 60 59 59 58 58 58 58 58 57 58 57 57 57 57 56 56 55 55 55 55 54 54 54 54 54 53 53 53 53 53 52 52 51 51 50 50 50 50 50 49 49 50 50 49 49 48 48 47 47 45 45 45 45 46 46
60 60 59 59 59 59 60 60 60 60 60 60 60 60 60 59 59 58 58 58 58 58 58 58 57 57 57 57 56 55 55 55 55 54 54 54 54 54 54 53 53 53 53 52 52 52 51 51 50 50 50 50 49 49 49 50 50 49 48 47 47 47 47 46 46 45 45 45 46
60 60 60 60 60 60 60 59 59 59 59 59 60 60 60 59 59 58 58 57 58 57 57 57 57 57 57 56 56 55 55 54 54 54 54 53 54 54 54 53 53 53 52 52 52 51 51 51 50 50 50 49 49 49 49 49 49 48 48 47 47 47 47 47 47 46 46 45 45
60 60 60 59 60 59 59 59 59 59 59 59 59 59 59 59 58 58 57 57 57 57 57 57 57 57 56 56 55 55 55 54 53 53 53 53 53 53 53 53 53 52 52 52 51 51 51 51 50 50 50 49 49 49 49 49 48 48 48 48 47 47 46 47 47 46 46 45 45
59 59 59 59 59 59 59 59 59 59 58 58 58 58 58 58 58 57 57 56 56 56 56 56 55 55 55 55 55 55 54 54 53 53 53 53 53 52 52 52 52 52 51 51 51 51 50 50 50 50 50 50 49 49 49 49 48 47 47 47 47 47 46 46 46 46 45 44 44
60 60 60 59 59 59 58 59 58 58 58 58 58 58 57 57 57 56 56 56 56 55 55 55 55 54 54 55 55 54 54 53 53 53 53 52 52 52 52 52 52 51 51 51 51 51 50 50 50 50 49 48 49 49 48 48 47 47 46 45 46 46 45 44 44 44 43 42 42
61 61 60 60 60 59 59 59 59 58 58 58 58 58 57 57 57 56 56 55 55 55 55 55 55 55 55 55 54 54 54 54 53 53 52 52 52 52 52 51 51 51 51 51 51 51 50 50 50 49 48 48 48 48 47 47 47 46 44 44 44 44 43 43 43 43 42 42 42
60 60 60 60 60 59 59 60 59 59 58 58 58 58 57 56 57 56 56 55 55 55 56 55 55 55 55 55 55 54 54 54 53 53 52 52 51 51 51 51 51 51 51 51 51 51 51 50 49 48 48 48 48 47 46 47 46 44 43 43 43 43 43 43 43 43 43 42 42
59 59 59 59 59 59 60 60 60 59 59 58 58 58 56 54 55 55 55 55 55 55 55 55 55 55 55 54 54 54 54 54 53 53 53 52 52 52 52 51 52 52 52 52 51 51 50 49 48 47 47 47 47 46 46 46 45 44 43 43 43 42 43 43 43 43 43 42 42
59 59 59 59 59 60 60 60 60 59 59 59 59 58 57 55 55 56 56 56 55 55 55 55 55 55 55 54 54 54 54 53 53 53 52 52 52 52 52 52 53 53 53 52 51 50 49 48 47 47 47 47 47 47 46 46 45 45 44 43 43 43 43 43 43 43 43 43 42
59 59 60 60 60 60 60 60 59 59 59 59 59 59 58 57 57 57 56 56 55 55 55 56 55 55 55 54 54 54 53 53 53 52 52 52 53 53 53 53 53 53 53 52 51 50 49 48 48 48 48 48 47 46 45 45 45 45 44 44 44 44 44 44 44 44 44 43 43
60 60 60 60 60 60 60 59 59 59 59 59 58 58 58 58 57 57 56 56 55 55 55 55 55 55 54 54 53 53 52 52 53 53 52 53 53 53 53 53 53 52 52 51 50 49 49 48 48 48 48 47 46 45 45 45 45 45 44 44 44 43 43 43 44 44 43 43 42
60 60 60 60 60 60 59 59 58 58 58 58 58 58 58 57 57 56 56 56 55 55 55 55 54 53 53 53 53 53 53 53 53 53 53 53 53 53 53 52 52 52 51 50 49 49 49 48 48 48 48 47 46 45 45 45 44 44 44 43 43 43 43 43 43 43 42 42 42
59 60 60 60 60 59 59 58 58 58 58 58 58 58 57 57 56 56 55 55 55 55 54 54 53 53 53 53 53 53 54 54 54 54 53 53 53 53 52 52 52 51 50 50 48 48 48 48 48 48 47 47 46 46 45 44 44 43 43 43 42 42 42 42 42 42 42 41 41
59 60 60 60 60 59 59 58 58 58 58 58 58 57 57 57 56 56 55 55 54 54 53 53 52 52 52 52 53 54 54 54 54 53 53 53 52 52 51 51 50 50 50 50 48 47 47 47 47 47 47 46 45 45 44 44 43 43 43 43 42 42 42 41 41 41 41 41 40
60 60 60 60 60 59 59 58 58 58 58 58 58 57 57 56 56 55 54 54 54 53 53 53 52 52 52 52 53 53 53 53 53 53 52 52 51 51 50 50 49 49 50 49 48 47 47 47 47 47 47 46 45 44 44 43 43 43 42 42 42 41 41 40 40 40 40 40 40
60 60 60 60 60 60 59 59 58 58 58 58 58 57 57 56 56 55 54 54 53 53 52 52 52 53 53 53 52 52 52 52 52 52 51 51 51 50 50 49 50 50 50 50 49 48 48 47 47 47 46 46 45 44 44 43 43 43 43 42 42 41 41 41 41 40 40 40 40
60 60 60 60 60 60 59 59 58 58 58 58 58 57 57 57 56 56 55 54 53 52 52 52 53 53 53 53 52 52 51 51 51 51 51 51 51 50 50 50 50 50 50 50 49 49 48 47 47 46 46 45 45 44 44 44 43 43 42 42 42 42 41 42 42 42 42 42 41
60 60 60 60 60 60 59 59 59 59 58 58 58 57 57 57 56 56 55 54 53 52 52 53 53 53 53 52 52 52 51 50 50 51 51 51 50 50 50 50 50 50 50 50 49 49 48 48 47 46 46 45 45 45 44 44 43 43 42 41 42 42 42 42 42 43 43 43 42
60 60 60 60 60 60 59 59 59 58 58 58 57 57 57 57 56 55 54 54 53 53 53 53 53 52 52 52 52 51 51 50 50 50 50 50 50 50 50 50 50 50 50 49 49 48 48 48 47 46 45 45 45 45 44 43 42 42 41 41 41 42 42 42 42 42 43 43 42
60 60 60 60 60 59 59 59 59 58 58 57 57 57 56 56 55 55 54 54 53 53 53 52 52 52 51 51 51 51 50 49 50 50 50 50 50 50 50 49 49 49 49 49 49 48 47 46 46 45 45 45 45 45 44 43 42 41 41 40 41 41 42 42 42 42 42 42 42
60 60 60 60 60 59 58 58 58 58 58 57 57 56 56 55 55 55 54 54 53 53 52 52 51 51 51 51 51 51 50 49 49 49 49 49 50 50 50 49 49 49 49 48 47 46 46 45 45 45 44 44 44 44 43 41 41 41 40 40 41 41 41 41 41 41 41 41 41
60 60 60 59 59 59 59 58 58 58 57 57 56 56 55 55 55 55 54 54 53 53 53 52 51 51 51 52 52 51 50 49 49 49 49 49 49 49 49 49 49 48 47 45 43 42 42 41 42 43 43 43 43 42 41 40 40 40 40 39 39 40 40 40 41 41 41 41 41
60 60 60 60 59 59 59 58 57 57 57 56 56 56 55 55 55 54 54 53 53 53 53 53 52 51 51 50 51 50 50 49 49 49 48 48 49 48 48 48 48 47 45 40 39 39 39 38 39 40 41 41 41 40 39 39 39 39 39 38 38 38 38 39 39 40 40 40 41
60 60 60 60 59 59 58 58 57 57 56 56 56 56 55 55 55 54 53 53 53 53 53 52 52 50 49 50 50 49 49 48 48 48 49 49 49 48 48 47 47 45 42 38 38 38 38 39 38 38 38 39 39 38 38 38 38 38 38 38 38 37 37 37 38 38 39 39 41
59 59 59 59 59 59 58 57 57 56 56 56 56 55 55 55 54 53 53 53 53 52 52 52 51 49 47 49 50 49 49 48 48 48 49 49 49 48 47 47 46 43 40 38 38 38 38 38 38 37 37 37 37 37 36 36 37 37 37 37 37 37 36 36 37 37 38 38 40
59 59 59 59 59 58 58 57 56 56 56 56 55 55 55 54 54 53 53 53 52 52 51 51 50 49 49 49 49 49 49 48 48 48 48 48 47 47 46 46 44 41 38 38 38 38 38 38 38 37 37 35 36 36 36 36 36 36 36 36 36 36 37 37 37 37 38 38 39
58 58 59 59 58 58 57 57 56 56 56 55 55 55 54 54 53 53 53 53 52 51 50 49 49 49 49 48 48 48 48 48 48 47 47 47 47 46 45 45 44 40 37 38 38 38 38 37 37 37 37 36 35 35 35 35 36 36 36 36 36 37 37 37 37 38 38 38 39
59 58 58 58 57 57 56 56 56 56 55 55 55 54 54 53 53 53 52 52 51 50 50 49 49 49 48 48 48 48 48 48 48 48 47 47 46 45 45 45 43 39 36 38 38 38 37 37 37 36 36 36 35 34 34 35 35 35 35 36 36 37 37 37 37 38 38 38 39
59 58 58 57 57 56 56 56 56 55 55 54 54 53 53 52 52 52 51 51 50 50 49 50 49 49 48 48 48 48 48 48 48 47 46 46 45 44 44 45 43 39 36 38 38 37 37 37 36 36 35 35 34 34 34 34 35 35 35 36 36 37 37 37 37 37 37 38 37
59 58 58 57 56 56 56 56 55 54 54 53 53 53 52 52 51 51 50 50 50 50 49 49 49 49 48 48 48 48 48 48 47 46 46 45 45 44 44 44 41 37 35 38 37 37 37 36 36 35 35 35 34 33 34 34 34 35 35 36 36 37 37 37 37 37 37 36 36
58 58 57 57 56 56 55 55 54 53 52 52 52 52 52 51 50 50 50 50 49 49 49 49 49 48 48 48 48 48 48 47 46 46 45 45 44 44 44 43 40 37 35 37 37 36 36 36 35 35 35 35 34 33 34 34 35 35 35 35 36 36 37 37 37 36 36 36 35
57 57 57 56 56 55 55 54 53 52 51 51 51 51 50 50 50 50 50 49 49 49 49 49 48 48 47 47 47 47 47 46 45 45 45 45 44 44 43 43 39 37 36 37 36 36 36 35 35 35 35 35 34 34 34 34 34 35 35 35 36 36 36 36 36 36 35 35 34
57 56 56 55 55 55 54 54 53 52 51 50 50 50 49 49 49 49 49 49 49 49 49 49 48 48 48 48 47 47 46 45 45 45 44 44 44 43 43 43 38 36 36 36 36 36 35 35 35 35 35 34 33 33 33 34 34 34 34 35 35 35 36 36 36 35 35 34 34
56 55 54 53 54 54 54 53 52 51 50 49 49 49 49 49 49 49 49 48 48 48 48 48 48 47 47 47 47 46 46 45 45 44 44 44 43 43 42 43 39 36 35 36 36 35 35 35 35 35 35 34 32 32 32 32 33 33 34 34 34 35 35 35 35 34 34 33 33
56 55 53 53 53 53 53 52 51 50 49 48 48 48 48 49 49 49 49 48 48 48 48 47 47 47 47 46 46 46 46 46 44 44 43 43 42 42 42 42 41 37 35 35 35 35 35 35 35 34 34 32 31 31 31 31 32 32 33 33 33 34 34 34 33 33 33 33 32
56 55 53 53 53 53 52 51 49 49 48 48 48 49 49 49 49 49 49 48 48 48 47 47 47 46 46 46 46 46 46 45 44 43 43 43 42 42 41 41 41 38 35 35 35 35 35 35 35 34 33 30 30 30 30 30 31 31 32 32 32 33 33 33 32 32 32 32 33
57 56 55 53 53 52 52 51 49 49 48 48 49 49 49 49 49 49 48 48 48 47 47 46 46 46 46 46 46 45 45 45 44 43 42 43 42 41 40 40 40 38 36 34 35 35 35 35 35 34 33 30 29 29 29 30 30 30 31 31 31 31 31 32 31 31 31 31 35
56 55 54 53 52 52 51 51 50 49 48 48 49 49 49 49 48 48 48 48 48 47 47 46 47 46 46 45 45 44 44 45 44 43 43 42 42 41 39 39 39 39 37 35 35 35 35 35 35 34 33 30 29 29 29 29 29 29 30 30 30 30 30 30 30 30 30 30 33
55 54 53 52 52 51 51 50 50 49 49 49 49 49 48 48 48 48 48 47 47 47 47 46 46 46 45 44 44 44 44 44 44 43 43 41 41 40 39 38 39 39 38 36 35 35 35 35 35 35 33 30 28 28 29 29 29 28 28 29 28 28 28 28 29 29 30 30 31
MSLP
1022.84 1022.96 1023.04 1023.08 1023.08 1023.08 1023.08 1023.24 1023.36 1023.40 1023.40 1023.32 1023.32 1023.36 1023.44 1023.48 1023.52 1023.64 1023.68 1023.72 1023.80 1023.84 1023.88 1023.96 1023.96 1024.00 1024.00 1024.04 1024.08 1024.12 1024.20 1024.24 1024.28 1024.28 1024.28 1024.28 1024.32 1024.28 1024.28 1024.28 1024.28 1024.28 1024.28 1024.28 1024.32 1024.32 1024.36 1024.36 1024.40 1024.44 1024.44 1024.44 1024.40 1024.36 1024.36 1024.36 1024.32 1024.32 1024.32 1024.36 1024.36 1024.44 1024.52 1024.52 1024.60 1024.64 1024.60 1024.56 1024.56
1022.80 1022.96 1023.08 1023.08 1023.08 1023.08 1023.08 1023.16 1023.28 1023.36 1023.36 1023.40 1023.40 1023.40 1023.48 1023.52 1023.60 1023.68 1023.72 1023.76 1023.80 1023.80 1023.84 1023.88 1023.92 1023.96 1023.96 1024.04 1024.08 1024.12 1024.16 1024.20 1024.24 1024.24 1024.24 1024.28 1024.28 1024.28 1024.24 1024.24 1024.24 1024.24 1024.24 1024.24 1024.24 1024.28 1024.32 1024.32 1024.36 1024.36 1024.36 1024.36 1024.36 1024.32 1024.28 1024.24 1024.28 1024.28 1024.28 1024.36 1024.40 1024.48 1024.52 1024.60 1024.64 1024.68 1024.64 1024.60 1024.56
1022.80 1022.88 1022.96 1022.96 1022.96 1022.96 1023.00 1023.08 1023.20 1023.24 1023.28 1023.40 1023.40 1023.44 1023.48 1023.56 1023.64 1023.68 1023.76 1023.76 1023.80 1023.80 1023.84 1023.88 1023.88 1023.92 1023.96 1024.04 1024.08 1024.12 1024.16 1024.20 1024.20 1024.24 1024.24 1024.24 1024.24 1024.24 1024.24 1024.20 1024.16 1024.16 1024.16 1024.20 1024.20 1024.24 1024.24 1024.28 1024.32 1024.32 1024.32 1024.32 1024.28 1024.28 1024.24 1024.24 1024.24 1024.24 1024.24 1024.36 1024.40 1024.48 1024.52 1024.64 1024.68 1024.68 1024.68 1024.68 1024.60
1022.72 1022.76 1022.80 1022.80 1022.80 1022.88 1022.96 1023.08 1023.20 1023.28 1023.36 1023.40 1023.40 1023.40 1023.44 1023.52 1023.60 1023.68 1023.72 1023.80 1023.80 1023.84 1023.88 1023.88 1023.84 1023.88 1023.96 1024.04 1024.08 1024.08 1024.12 1024.16 1024.16 1024.16 1024.20 1024.24 1024.20 1024.16 1024.12 1024.12 1024.12 1024.12 1024.16 1024.16 1024.16 1024.20 1024.24 1024.24 1024.24 1024.24 1024.24 1024.24 1024.24 1024.24 1024.24 1024.20 1024.16 1024.20 1024.24 1024.36 1024.40 1024.52 1024.56 1024.60 1024.60 1024.64 1024.68 1024.68 1024.64
1022.72 1022.76 1022.80 1022.84 1022.88 1022.96 1023.04 1023.16 1023.24 1023.36 1023.40 1023.40 1023.40 1023.40 1023.40 1023.48 1023.56 1023.64 1023.68 1023.80 1023.84 1023.88 1023.92 1023.96 1023.92 1023.96 1023.96 1024.00 1024.04 1024.08 1024.08 1024.12 1024.12 1024.12 1024.12 1024.16 1024.16 1024.12 1024.12 1024.12 1024.12 1024.12 1024.16 1024.20 1024.20 1024.20 1024.20 1024.20 1024.20 1024.20 1024.20 1024.20 1024.20 1024.20 1024.20 1024.20 1024.16 1024.24 1024.28 1024.36 1024.44 1024.52 1024.56 1024.60 1024.60 1024.64 1024.64 1024.68 1024.68
1022.72 1022.80 1022.84 1022.96 1022.96 1023.04 1023.08 1023.20 1023.24 1023.32 1023.40 1023.40 1023.40 1023.36 1023.40 1023.44 1023.52 1023.64 1023.72 1023.80 1023.88 1023.92 1023.96 1023.96 1023.96 1024.00 1024.00 1024.00 1024.00 1024.04 1024.04 1024.08 1024.08 1024.08 1024.08 1024.16 1024.16 1024.16 1024.16 1024.16 1024.16 1024.16 1024.20 1024.20 1024.20 1024.20 1024.16 1024.16 1024.16 1024.16 1024.16 1024.16 1024.16 1024.16 1024.16 1024.20 1024.24 1024.32 1024.36 1024.40 1024.48 1024.52 1024.56 1024.68 1024.68 1024.68 1024.72 1024.72 1024.72
1022.68 1022.80 1022.88 1022.96 1023.04 1023.08 1023.08 1023.20 1023.24 1023.28 1023.32 1023.32 1023.32 1023.32 1023.36 1023.44 1023.52 1023.64 1023.72 1023.80 1023.88 1023.96 1023.96 1024.00 1024.00 1024.00 1024.00 1024.00 1023.96 1023.96 1023.96 1024.00 1024.00 1024.04 1024.08 1024.12 1024.12 1024.16 1024.20 1024.20 1024.20 1024.20 1024.20 1024.20 1024.16 1024.12 1024.08 1024.12 1024.08 1024.08 1024.12 1024.16 1024.16 1024.20 1024.20 1024.24 1024.28 1024.36 1024.44 1024.52 1024.52 1024.56 1024.64 1024.68 1024.72 1024.76 1024.76 1024.76 1024.72
1022.64 1022.72 1022.84 1022.96 1023.00 1023.00 1023.04 1023.08 1023.20 1023.24 1023.24 1023.24 1023.24 1023.28 1023.36 1023.44 1023.52 1023.60 1023.68 1023.76 1023.80 1023.88 1023.96 1023.96 1023.96 1024.00 1024.00 1023.96 1023.96 1023.92 1023.96 1023.96 1023.96 1024.00 1024.04 1024.08 1024.08 1024.16 1024.20 1024.20 1024.20 1024.20 1024.16 1024.08 1024.08 1024.08 1024.04 1024.04 1024.04 1024.08 1024.12 1024.20 1024.20 1024.24 1024.24 1024.32 1024.32 1024.40 1024.52 1024.56 1024.56 1024.64 1024.68 1024.72 1024.72 1024.76 1024.76 1024.76 1024.68
1022.60 1022.72 1022.84 1022.96 1022.96 1022.96 1023.00 1023.04 1023.08 1023.12 1023.16 1023.16 1023.20 1023.24 1023.32 1023.40 1023.48 1023.52 1023.64 1023.68 1023.80 1023.80 1023.88 1023.92 1023.92 1023.92 1023.92 1023.92 1023.88 1023.88 1023.88 1023.88 1023.88 1023.92 1023.96 1024.04 1024.08 1024.16 1024.20 1024.16 1024.16 1024.08 1024.04 1023.96 1023.96 1023.92 1023.92 1023.96 1024.00 1024.08 1024.08 1024.20 1024.24 1024.28 1024.32 1024.32 1024.36 1024.44 1024.52 1024.60 1024.64 1024.68 1024.72 1024.76 1024.76 1024.72 1024.68 1024.68 1024.68
1022.56 1022.68 1022.80 1022.88 1022.92 1022.92 1022.92 1022.96 1022.96 1023.00 1023.04 1023.08 1023.12 1023.16 1023.24 1023.36 1023.40 1023.48 1023.52 1023.60 1023.68 1023.72 1023.80 1023.80 1023.80 1023.84 1023.84 1023.80 1023.80 1023.80 1023.76 1023.80 1023.84 1023.88 1023.96 1024.00 1024.08 1024.08 1024.08 1024.08 1024.04 1023.96 1023.84 1023.80 1023.80 1023.80 1023.84 1023.92 1024.00 1024.04 1024.08 1024.16 1024.24 1024.24 1024.28 1024.36 1024.40 1024.48 1024.52 1024.60 1024.68 1024.68 1024.72 1024.72 1024.68 1024.68 1024.64 1024.60 1024.56
1022.48 1022.64 1022.72 1022.80 1022.80 1022.80 1022.80 1022.80 1022.84 1022.92 1022.96 1023.00 1023.04 1023.08 1023.16 1023.24 1023.28 1023.36 1023.44 1023.52 1023.56 1023.68 1023.72 1023.72 1023.76 1023.80 1023.80 1023.80 1023.80 1023.76 1023.76 1023.80 1023.80 1023.88 1023.96 1023.96 1024.08 1024.08 1024.00 1023.96 1023.84 1023.76 1023.68 1023.68 1023.68 1023.72 1023.80 1023.92 1023.96 1024.04 1024.08 1024.08 1024.16 1024.20 1024.24 1024.36 1024.40 1024.48 1024.52 1024.56 1024.64 1024.68 1024.68 1024.64 1024.60 1024.60 1024.52 1024.52 1024.48
1022.36 1022.52 1022.60 1022.68 1022.68 1022.68 1022.68 1022.72 1022.80 1022.84 1022.92 1022.96 1022.96 1023.04 1023.08 1023.16 1023.24 1023.32 1023.40 1023.52 1023.56 1023.64 1023.68 1023.68 1023.72 1023.80 1023.80 1023.80 1023.80 1023.80 1023.80 1023.80 1023.84 1023.92 1023.96 1023.96 1023.96 1023.92 1023.84 1023.76 1023.68 1023.64 1023.60 1023.60 1023.64 1023.72 1023.80 1023.92 1023.96 1024.00 1024.00 1024.04 1024.12 1024.20 1024.24 1024.36 1024.40 1024.44 1024.52 1024.52 1024.56 1024.60 1024.60 1024.56 1024.52 1024.52 1024.48 1024.44 1024.48
1022.32 1022.40 1022.48 1022.52 1022.52 1022.52 1022.60 1022.68 1022.76 1022.84 1022.88 1022.88 1022.96 1023.00 1023.08 1023.12 1023.20 1023.28 1023.40 1023.48 1023.56 1023.64 1023.68 1023.72 1023.76 1023.80 1023.80 1023.84 1023.84 1023.88 1023.88 1023.88 1023.88 1023.88 1023.84 1023.80 1023.76 1023.72 1023.68 1023.60 1023.56 1023.56 1023.60 1023.64 1023.72 1023.80 1023.84 1023.92 1023.96 1023.96 1024.00 1024.08 1024.12 1024.20 1024.24 1024.32 1024.36 1024.40 1024.44 1024.48 1024.52 1024.52 1024.56 1024.52 1024.48 1024.48 1024.48 1024.48 1024.44
1022.28 1022.36 1022.36 1022.36 1022.36 1022.48 1022.56 1022.64 1022.72 1022.80 1022.80 1022.84 1022.88 1022.96 1023.00 1023.08 1023.20 1023.28 1023.36 1023.44 1023.52 1023.64 1023.68 1023.76 1023.80 1023.84 1023.88 1023.88 1023.92 1023.92 1023.88 1023.84 1023.80 1023.72 1023.68 1023.64 1023.56 1023.52 1023.52 1023.52 1023.56 1023.64 1023.68 1023.76 1023.80 1023.84 1023.88 1023.92 1023.96 1023.96 1024.00 1024.08 1024.12 1024.20 1024.24 1024.28 1024.36 1024.36 1024.36 1024.40 1024.48 1024.52 1024.52 1024.48 1024.48 1024.44 1024.44 1024.44 1024.40
1022.24 1022.24 1022.24 1022.24 1022.28 1022.36 1022.52 1022.60 1022.68 1022.72 1022.76 1022.80 1022.84 1022.92 1022.96 1023.08 1023.16 1023.24 1023.36 1023.44 1023.52 1023.64 1023.72 1023.80 1023.84 1023.88 1023.88 1023.92 1023.88 1023.84 1023.80 1023.72 1023.68 1023.56 1023.52 1023.48 1023.48 1023.48 1023.52 1023.60 1023.68 1023.76 1023.80 1023.88 1023.88 1023.92 1023.92 1023.96 1023.96 1023.96 1024.00 1024.08 1024.16 1024.20 1024.24 1024.24 1024.28 1024.28 1024.32 1024.32 1024.36 1024.40 1024.40 1024.36 1024.36 1024.36 1024.36 1024.36 1024.36
1022.12 1022.12 1022.12 1022.12 1022.20 1022.32 1022.40 1022.52 1022.60 1022.68 1022.68 1022.72 1022.80 1022.84 1022.96 1023.04 1023.12 1023.24 1023.32 1023.44 1023.52 1023.64 1023.68 1023.80 1023.84 1023.88 1023.92 1023.92 1023.84 1023.80 1023.72 1023.64 1023.52 1023.52 1023.48 1023.48 1023.52 1023.56 1023.64 1023.72 1023.80 1023.88 1023.92 1023.92 1023.96 1023.96 1023.92 1023.92 1023.92 1023.96 1024.00 1024.08 1024.12 1024.20 1024.20 1024.20 1024.24 1024.20 1024.20 1024.24 1024.28 1024.32 1024.32 1024.32 1024.28 1024.28 1024.28 1024.24 1024.24
1021.96 1021.96 1021.96 1022.00 1022.08 1022.16 1022.24 1022.36 1022.48 1022.52 1022.60 1022.68 1022.72 1022.80 1022.92 1023.00 1023.08 1023.20 1023.28 1023.40 1023.52 1023.56 1023.68 1023.80 1023.84 1023.88 1023.88 1023.84 1023.76 1023.68 1023.64 1023.56 1023.52 1023.52 1023.52 1023.52 1023.60 1023.68 1023.72 1023.80 1023.88 1023.92 1023.96 1023.92 1023.92 1023.88 1023.88 1023.84 1023.84 1023.88 1023.92 1023.96 1024.04 1024.08 1024.08 1024.12 1024.12 1024.12 1024.12 1024.20 1024.20 1024.20 1024.24 1024.24 1024.24 1024.24 1024.20 1024.16 1024.12
1021.76 1021.76 1021.80 1021.88 1021.96 1022.04 1022.12 1022.24 1022.32 1022.40 1022.52 1022.64 1022.68 1022.80 1022.84 1022.96 1023.04 1023.12 1023.24 1023.32 1023.40 1023.52 1023.64 1023.72 1023.80 1023.80 1023.80 1023.72 1023.68 1023.60 1023.56 1023.52 1023.52 1023.52 1023.56 1023.60 1023.68 1023.72 1023.76 1023.80 1023.84 1023.84 1023.84 1023.84 1023.80 1023.80 1023.80 1023.76 1023.76 1023.80 1023.80 1023.84 1023.92 1023.96 1024.00 1024.04 1024.08 1024.08 1024.08 1024.12 1024.08 1024.08 1024.08 1024.08 1024.12 1024.12 1024.12 1024.08 1024.04
1021.52 1021.56 1021.64 1021.72 1021.80 1021.88 1021.96 1022.08 1022.20 1022.32 1022.44 1022.52 1022.60 1022.68 1022.80 1022.92 1022.96 1023.04 1023.12 1023.24 1023.36 1023.48 1023.56 1023.64 1023.68 1023.68 1023.64 1023.60 1023.56 1023.52 1023.52 1023.52 1023.52 1023.52 1023.60 1023.64 1023.68 1023.72 1023.76 1023.76 1023.76 1023.76 1023.76 1023.72 1023.72 1023.72 1023.68 1023.68 1023.68 1023.72 1023.76 1023.80 1023.84 1023.88 1023.96 1023.96 1024.04 1024.04 1024.04 1024.04 1024.00 1024.00 1024.04 1024.04 1024.04 1024.04 1024.04 1024.00 1023.96
1021.40 1021.40 1021.48 1021.56 1021.64 1021.72 1021.88 1022.00 1022.12 1022.24 1022.36 1022.48 1022.56 1022.68 1022.76 1022.80 1022.88 1022.96 1023.04 1023.12 1023.28 1023.40 1023.48 1023.52 1023.56 1023.52 1023.52 1023.48 1023.48 1023.48 1023.48 1023.52 1023.52 1023.56 1023.64 1023.68 1023.68 1023.72 1023.68 1023.68 1023.68 1023.68 1023.68 1023.68 1023.68 1023.68 1023.68 1023.68 1023.68 1023.68 1023.68 1023.72 1023.80 1023.80 1023.88 1023.96 1023.96 1023.96 1023.96 1023.96 1023.96 1023.96 1024.00 1024.00 1024.00 1024.00 1023.96 1023.92 1023.88
1021.24 1021.28 1021.36 1021.48 1021.52 1021.68 1021.80 1021.96 1022.08 1022.24 1022.32 1022.44 1022.52 1022.64 1022.68 1022.76 1022.80 1022.88 1022.96 1023.08 1023.16 1023.24 1023.28 1023.36 1023.40 1023.40 1023.40 1023.40 1023.40 1023.40 1023.40 1023.48 1023.52 1023.56 1023.64 1023.68 1023.68 1023.68 1023.60 1023.56 1023.56 1023.56 1023.56 1023.56 1023.60 1023.60 1023.60 1023.64 1023.68 1023.68 1023.68 1023.68 1023.72 1023.76 1023.80 1023.80 1023.88 1023.92 1023.96 1023.96 1023.96 1023.96 1023.96 1024.00 1023.96 1023.96 1023.92 1023.84 1023.80
1021.08 1021.16 1021.24 1021.36 1021.44 1021.56 1021.72 1021.84 1022.04 1022.16 1022.28 1022.36 1022.48 1022.52 1022.60 1022.68 1022.76 1022.80 1022.88 1022.96 1023.04 1023.08 1023.12 1023.20 1023.24 1023.28 1023.32 1023.32 1023.36 1023.32 1023.36 1023.40 1023.48 1023.52 1023.56 1023.60 1023.60 1023.56 1023.52 1023.52 1023.52 1023.44 1023.44 1023.40 1023.40 1023.44 1023.52 1023.56 1023.60 1023.68 1023.68 1023.64 1023.68 1023.68 1023.72 1023.80 1023.88 1023.96 1023.96 1024.00 1024.00 1024.00 1024.00 1023.96 1023.96 1023.92 1023.88 1023.80 1023.76
1021.00 1021.08 1021.12 1021.24 1021.36 1021.52 1021.68 1021.80 1021.92 1022.08 1022.20 1022.28 1022.40 1022.48 1022.52 1022.56 1022.68 1022.72 1022.80 1022.84 1022.92 1022.96 1023.00 1023.08 1023.12 1023.16 1023.20 1023.20 1023.20 1023.24 1023.28 1023.32 1023.40 1023.40 1023.48 1023.52 1023.48 1023.44 1023.40 1023.40 1023.40 1023.36 1023.32 1023.28 1023.36 1023.40 1023.48 1023.52 1023.60 1023.64 1023.68 1023.68 1023.68 1023.76 1023.80 1023.92 1024.00 1024.08 1024.08 1024.08 1024.08 1024.04 1024.00 1023.96 1023.92 1023.88 1023.80 1023.72 1023.68
1020.88 1020.96 1021.04 1021.12 1021.24 1021.40 1021.52 1021.68 1021.84 1021.96 1022.08 1022.20 1022.28 1022.36 1022.48 1022.52 1022.56 1022.60 1022.68 1022.68 1022.80 1022.88 1022.92 1022.96 1023.00 1023.04 1023.08 1023.08 1023.08 1023.16 1023.24 1023.24 1023.32 1023.36 1023.36 1023.36 1023.36 1023.32 1023.28 1023.28 1023.28 1023.24 1023.28 1023.44 1023.64 1023.64 1023.60 1023.68 1023.68 1023.72 1023.76 1023.80 1023.84 1023.92 1024.00 1024.08 1024.12 1024.20 1024.20 1024.16 1024.12 1024.08 1024.04 1023.96 1023.92 1023.84 1023.76 1023.68 1023.60
1020.80 1020.88 1020.96 1021.04 1021.16 1021.28 1021.48 1021.60 1021.76 1021.88 1022.00 1022.12 1022.20 1022.28 1022.36 1022.40 1022.48 1022.52 1022.56 1022.64 1022.68 1022.80 1022.84 1022.84 1022.88 1022.92 1022.96 1022.96 1023.00 1023.08 1023.16 1023.24 1023.24 1023.28 1023.28 1023.28 1023.24 1023.24 1023.24 1023.24 1023.20 1023.24 1023.44 1023.80 1023.96 1023.96 1023.88 1023.92 1023.92 1023.96 1023.96 1023.96 1024.04 1024.08 1024.16 1024.20 1024.24 1024.24 1024.24 1024.24 1024.20 1024.12 1024.04 1023.96 1023.88 1023.80 1023.68 1023.60 1023.52
1020.72 1020.80 1020.88 1020.96 1021.08 1021.20 1021.40 1021.52 1021.68 1021.80 1021.92 1022.04 1022.12 1022.20 1022.24 1022.36 1022.36 1022.44 1022.52 1022.60 1022.64 1022.68 1022.72 1022.76 1022.80 1022.80 1022.88 1022.92 1022.96 1023.00 1023.08 1023.08 1023.12 1023.16 1023.16 1023.20 1023.16 1023.20 1023.24 1023.24 1023.24 1023.44 1023.80 1024.08 1024.12 1024.08 1024.08 1024.08 1024.12 1024.16 1024.20 1024.20 1024.24 1024.24 1024.28 1024.24 1024.24 1024.28 1024.24 1024.24 1024.20 1024.12 1024.08 1023.96 1023.80 1023.72 1023.64 1023.52 1023.40
1020.64 1020.68 1020.76 1020.84 1020.96 1021.08 1021.24 1021.40 1021.52 1021.68 1021.80 1021.96 1022.04 1022.08 1022.20 1022.24 1022.36 1022.40 1022.52 1022.56 1022.60 1022.60 1022.64 1022.68 1022.72 1022.76 1022.80 1022.84 1022.88 1022.96 1022.96 1023.00 1023.04 1023.04 1023.08 1023.08 1023.08 1023.20 1023.24 1023.24 1023.36 1023.68 1024.04 1024.20 1024.20 1024.16 1024.20 1024.24 1024.28 1024.32 1024.36 1024.36 1024.36 1024.36 1024.36 1024.32 1024.28 1024.24 1024.28 1024.28 1024.24 1024.12 1024.04 1023.96 1023.80 1023.64 1023.52 1023.40 1023.32
1020.52 1020.56 1020.64 1020.72 1020.84 1021.00 1021.12 1021.32 1021.48 1021.60 1021.72 1021.84 1021.96 1022.00 1022.08 1022.24 1022.32 1022.36 1022.44 1022.52 1022.52 1022.52 1022.56 1022.64 1022.64 1022.68 1022.68 1022.76 1022.80 1022.84 1022.88 1022.92 1022.92 1022.96 1023.00 1023.04 1023.08 1023.20 1023.24 1023.28 1023.44 1023.84 1024.16 1024.24 1024.24 1024.24 1024.32 1024.36 1024.40 1024.44 1024.48 1024.52 1024.48 1024.44 1024.36 1024.36 1024.32 1024.32 1024.28 1024.28 1024.20 1024.08 1023.96 1023.84 1023.68 1023.56 1023.44 1023.36 1023.24
1020.36 1020.44 1020.52 1020.68 1020.76 1020.92 1021.08 1021.24 1021.40 1021.52 1021.64 1021.76 1021.84 1021.96 1022.08 1022.20 1022.28 1022.36 1022.40 1022.48 1022.48 1022.52 1022.52 1022.52 1022.52 1022.56 1022.64 1022.72 1022.72 1022.80 1022.80 1022.88 1022.88 1022.88 1022.96 1023.04 1023.12 1023.24 1023.28 1023.36 1023.52 1023.92 1024.28 1024.36 1024.36 1024.36 1024.40 1024.48 1024.52 1024.52 1024.52 1024.52 1024.52 1024.44 1024.36 1024.36 1024.36 1024.32 1024.28 1024.24 1024.16 1024.04 1023.92 1023.80 1023.64 1023.52 1023.40 1023.32 1023.20
1020.24 1020.36 1020.48 1020.60 1020.68 1020.80 1020.96 1021.12 1021.24 1021.40 1021.52 1021.68 1021.80 1021.96 1022.08 1022.16 1022.24 1022.28 1022.36 1022.40 1022.40 1022.44 1022.48 1022.48 1022.48 1022.52 1022.56 1022.64 1022.68 1022.72 1022.80 1022.80 1022.80 1022.88 1022.96 1023.08 1023.16 1023.28 1023.40 1023.40 1023.52 1023.96 1024.36 1024.48 1024.44 1024.44 1024.48 1024.52 1024.56 1024.60 1024.56 1024.56 1024.48 1024.40 1024.36 1024.36 1024.36 1024.36 1024.28 1024.24 1024.08 1023.96 1023.80 1023.68 1023.56 1023.48 1023.40 1023.28 1023.20
1020.16 1020.28 1020.36 1020.48 1020.56 1020.68 1020.84 1021.00 1021.16 1021.32 1021.48 1021.68 1021.80 1021.92 1022.04 1022.08 1022.20 1022.24 1022.32 1022.36 1022.36 1022.40 1022.36 1022.36 1022.40 1022.44 1022.52 1022.52 1022.60 1022.68 1022.72 1022.72 1022.80 1022.84 1022.96 1023.12 1023.24 1023.36 1023.40 1023.48 1023.72 1024.08 1024.40 1024.52 1024.52 1024.52 1024.52 1024.56 1024.56 1024.56 1024.52 1024.52 1024.48 1024.44 1024.40 1024.40 1024.36 1024.36 1024.24 1024.12 1024.00 1023.84 1023.72 1023.64 1023.52 1023.48 1023.40 1023.32 1023.24
1020.08 1020.16 1020.24 1020.32 1020.44 1020.56 1020.72 1020.88 1021.08 1021.28 1021.44 1021.60 1021.76 1021.88 1021.96 1022.04 1022.12 1022.24 1022.24 1022.32 1022.32 1022.32 1022.32 1022.32 1022.36 1022.36 1022.44 1022.48 1022.52 1022.64 1022.68 1022.72 1022.80 1022.92 1023.04 1023.16 1023.24 1023.36 1023.40 1023.48 1023.96 1024.36 1024.48 1024.48 1024.48 1024.52 1024.52 1024.52 1024.56 1024.52 1024.52 1024.52 1024.48 1024.44 1024.40 1024.40 1024.36 1024.28 1024.16 1024.04 1023.96 1023.80 1023.72 1023.68 1023.52 1023.44 1023.40 1023.40 1023.40
1019.96 1020.04 1020.12 1020.20 1020.36 1020.52 1020.68 1020.84 1021.04 1021.24 1021.40 1021.56 1021.72 1021.80 1021.92 1021.96 1022.08 1022.16 1022.24 1022.24 1022.24 1022.24 1022.24 1022.24 1022.24 1022.32 1022.36 1022.52 1022.52 1022.60 1022.68 1022.72 1022.80 1022.96 1023.04 1023.12 1023.24 1023.40 1023.44 1023.52 1024.08 1024.44 1024.52 1024.48 1024.52 1024.52 1024.52 1024.52 1024.52 1024.52 1024.52 1024.48 1024.48 1024.40 1024.36 1024.36 1024.28 1024.20 1024.08 1024.00 1023.92 1023.80 1023.68 1023.60 1023.52 1023.52 1023.48 1023.48 1023.52
1019.84 1019.92 1020.00 1020.12 1020.28 1020.44 1020.64 1020.84 1021.04 1021.24 1021.40 1021.52 1021.68 1021.76 1021.84 1021.96 1022.00 1022.08 1022.12 1022.12 1022.12 1022.12 1022.12 1022.16 1022.24 1022.28 1022.36 1022.44 1022.52 1022.56 1022.64 1022.72 1022.80 1022.92 1023.04 1023.12 1023.24 1023.40 1023.48 1023.52 1024.00 1024.36 1024.52 1024.44 1024.48 1024.48 1024.52 1024.52 1024.52 1024.52 1024.52 1024.44 1024.44 1024.36 1024.36 1024.36 1024.28 1024.20 1024.08 1024.00 1023.92 1023.80 1023.68 1023.60 1023.52 1023.52 1023.52 1023.56 1023.56
1019.76 1019.84 1019.96 1020.12 1020.28 1020.48 1020.68 1020.84 1021.04 1021.24 1021.40 1021.52 1021.64 1021.76 1021.80 1021.88 1021.96 1022.00 1022.04 1022.04 1022.04 1022.04 1022.04 1022.08 1022.12 1022.24 1022.32 1022.36 1022.40 1022.52 1022.56 1022.68 1022.80 1022.92 1023.00 1023.08 1023.28 1023.40 1023.48 1023.52 1023.96 1024.32 1024.44 1024.40 1024.44 1024.44 1024.48 1024.52 1024.52 1024.52 1024.48 1024.40 1024.40 1024.36 1024.36 1024.36 1024.28 1024.24 1024.12 1024.04 1023.92 1023.80 1023.68 1023.64 1023.56 1023.56 1023.60 1023.60 1023.60
1019.68 1019.84 1020.04 1020.20 1020.36 1020.52 1020.72 1020.88 1021.08 1021.24 1021.40 1021.52 1021.64 1021.72 1021.80 1021.84 1021.92 1021.92 1021.96 1021.96 1021.96 1021.96 1021.96 1022.00 1022.08 1022.20 1022.28 1022.32 1022.36 1022.40 1022.52 1022.64 1022.76 1022.84 1022.96 1023.08 1023.24 1023.40 1023.44 1023.52 1023.92 1024.24 1024.40 1024.36 1024.40 1024.44 1024.44 1024.48 1024.48 1024.44 1024.40 1024.40 1024.44 1024.44 1024.36 1024.36 1024.32 1024.24 1024.12 1024.04 1023.96 1023.80 1023.68 1023.68 1023.64 1023.64 1023.64 1023.64 1023.64
1019.68 1019.88 1020.08 1020.32 1020.48 1020.68 1020.80 1020.96 1021.12 1021.28 1021.40 1021.52 1021.60 1021.68 1021.76 1021.80 1021.80 1021.80 1021.80 1021.84 1021.84 1021.88 1021.96 1022.04 1022.08 1022.16 1022.24 1022.24 1022.32 1022.36 1022.44 1022.56 1022.72 1022.80 1022.96 1023.04 1023.16 1023.28 1023.40 1023.48 1023.72 1024.08 1024.32 1024.32 1024.32 1024.36 1024.36 1024.40 1024.40 1024.40 1024.40 1024.44 1024.48 1024.48 1024.44 1024.36 1024.36 1024.24 1024.16 1024.04 1023.96 1023.84 1023.80 1023.76 1023.72 1023.68 1023.68 1023.68 1023.64
1019.72 1019.96 1020.16 1020.40 1020.56 1020.72 1020.88 1021.04 1021.16 1021.28 1021.40 1021.52 1021.56 1021.64 1021.68 1021.68 1021.68 1021.68 1021.72 1021.80 1021.80 1021.88 1021.96 1022.04 1022.08 1022.12 1022.20 1022.24 1022.28 1022.32 1022.40 1022.52 1022.64 1022.76 1022.88 1022.96 1023.04 1023.16 1023.32 1023.44 1023.52 1023.84 1024.16 1024.24 1024.24 1024.24 1024.28 1024.36 1024.36 1024.36 1024.40 1024.48 1024.52 1024.56 1024.52 1024.44 1024.36 1024.24 1024.16 1024.04 1023.96 1023.88 1023.88 1023.84 1023.80 1023.76 1023.68 1023.64 1023.56
1019.76 1019.96 1020.20 1020.36 1020.56 1020.76 1020.92 1021.04 1021.16 1021.24 1021.36 1021.44 1021.52 1021.52 1021.60 1021.60 1021.60 1021.64 1021.68 1021.72 1021.80 1021.88 1021.96 1022.00 1022.08 1022.08 1022.12 1022.16 1022.24 1022.32 1022.36 1022.48 1022.52 1022.68 1022.76 1022.84 1022.96 1023.08 1023.24 1023.44 1023.48 1023.68 1023.96 1024.16 1024.20 1024.20 1024.24 1024.24 1024.28 1024.32 1024.36 1024.52 1024.56 1024.60 1024.60 1024.52 1024.36 1024.28 1024.16 1024.08 1024.04 1024.00 1023.96 1023.92 1023.88 1023.80 1023.72 1023.64 1023.48
1019.80 1020.04 1020.24 1020.44 1020.64 1020.80 1020.96 1021.08 1021.20 1021.24 1021.36 1021.40 1021.44 1021.48 1021.52 1021.52 1021.56 1021.64 1021.68 1021.76 1021.80 1021.88 1021.96 1021.96 1022.04 1022.08 1022.08 1022.16 1022.24 1022.28 1022.32 1022.40 1022.40 1022.52 1022.68 1022.80 1022.92 1023.08 1023.24 1023.40 1023.44 1023.52 1023.72 1023.96 1024.08 1024.12 1024.16 1024.16 1024.16 1024.20 1024.32 1024.48 1024.56 1024.60 1024.60 1024.52 1024.40 1024.32 1024.20 1024.12 1024.12 1024.08 1024.08 1024.00 1023.92 1023.84 1023.72 1023.60 1023.44
1020.00 1020.20 1020.36 1020.52 1020.68 1020.84 1020.96 1021.08 1021.20 1021.24 1021.32 1021.40 1021.40 1021.44 1021.52 1021.52 1021.60 1021.64 1021.68 1021.76 1021.80 1021.84 1021.88 1021.96 1021.96 1022.00 1022.08 1022.16 1022.24 1022.24 1022.28 1022.36 1022.36 1022.48 1022.64 1022.76 1022.88 1023.04 1023.16 1023.24 1023.32 1023.36 1023.48 1023.76 1023.96 1024.00 1024.00 1024.00 1024.04 1024.08 1024.24 1024.44 1024.52 1024.56 1024.60 1024.52 1024.44 1024.36 1024.28 1024.24 1024.24 1024.20 1024.16 1024.08 1023.96 1023.80 1023.68 1023.52 1023.40
Wind_Speed
3 2 2 1 1 2 2 1 1 0 1 1 1 1 1 1 1 1 1 1 1 1 1 1 1 1 2 2 3 2 2 3 3 3 3 3 3 4 4 4 4 4 4 3 3 2 2 2 2 2 2 3 3 3 4 3 4 4 4 4 3 3 3 4 3 4 4 4 3
4 4 3 2 2 2 2 2 2 1 1 0 0 0 1 1 1 1 1 1 1 1 1 1 2 2 2 3 3 3 3 3 3 3 3 3 4 4 4 4 4 4 4 4 3 3 2 2 3 2 3 3 3 3 3 4 4 4 4 4 3 3 3 3 3 4 4 4 4
4 4 4 4 3 2 2 1 1 1 0 0 0 0 0 0 1 1 1 1 2 2 2 2 2 2 2 3 3 3 3 3 3 3 3 3 4 4 5 4 5 4 4 4 3 3 3 3 3 3 3 3 3 3 3 4 3 3 3 3 3 3 2 3 3 3 3 3 3
4 3 3 3 2 2 1 1 1 1 1 1 0 0 0 1 1 1 1 2 2 2 2 2 3 3 2 2 3 3 3 3 3 4 4 4 4 5 5 5 5 5 4 4 4 4 4 4 3 3 3 3 3 3 3 3 3 2 2 2 2 2 2 2 3 3 3 3 4
3 2 2 2 2 2 2 1 1 0 0 1 1 1 0 1 1 1 1 2 2 3 3 3 3 3 3 3 3 4 4 4 3 3 3 4 4 5 5 5 5 5 5 5 5 5 5 4 3 3 3 3 3 3 3 3 3 3 3 2 2 2 3 3 3 3 3 3 4
3 3 2 2 2 2 1 1 1 1 1 2 2 1 0 1 1 1 2 2 2 3 3 4 3 3 3 4 4 4 4 3 3 3 4 4 4 5 5 6 6 5 5 5 5 5 5 4 3 3 2 2 2 3 3 4 3 3 3 3 3 3 3 4 3 4 4 4 5
4 4 4 3 3 3 2 2 2 2 2 2 2 1 0 1 1 1 2 2 2 2 3 3 3 3 4 4 4 4 3 3 3 3 4 4 4 4 5 5 5 5 5 5 5 5 5 4 3 2 2 2 2 3 4 4 3 3 3 3 3 3 3 4 4 4 4 5 6
5 4 4 4 3 3 3 3 3 3 2 2 1 0 1 1 1 2 2 2 2 2 2 2 3 4 4 5 4 4 4 4 3 3 3 3 4 4 5 5 5 6 6 6 5 5 4 3 2 2 2 2 2 3 3 4 4 4 4 4 3 3 3 3 4 4 5 6 7
4 4 4 4 3 3 3 3 3 3 2 2 1 0 1 0 1 1 2 2 2 2 2 3 4 4 5 5 5 5 4 4 3 3 3 3 4 4 5 5 6 6 6 6 5 5 4 2 2 2 2 2 2 3 3 4 4 4 4 4 4 4 4 4 4 5 5 6 6
4 4 4 4 4 4 4 4 3 3 2 2 1 1 1 1 0 1 1 2 2 2 2 3 4 4 5 5 5 4 4 3 3 3 3 4 4 5 6 6 7 7 7 5 4 3 3 2 2 2 2 2 3 3 3 4 4 4 4 3 3 4 5 5 5 5 6 6 6
5 4 4 4 5 4 4 3 3 2 2 2 1 1 0 0 1 1 1 1 2 3 3 3 4 4 5 5 4 4 4 3 3 3 4 4 5 6 7 7 8 8 7 5 3 2 2 2 2 3 3 3 3 3 3 4 4 4 4 4 4 5 6 6 6 6 6 6 7
5 5 5 5 5 4 3 2 1 1 1 1 1 1 1 1 1 2 2 2 3 3 3 4 4 5 5 4 4 4 4 4 4 4 4 5 6 7 8 8 7 7 6 5 3 3 2 2 3 4 4 4 3 3 3 4 4 5 5 5 5 6 7 7 7 7 6 7 8
5 5 6 6 5 4 3 2 1 1 1 2 1 1 1 1 2 2 2 3 3 3 3 4 4 4 4 4 4 4 4 4 5 5 5 6 7 7 7 6 6 6 6 5 4 4 3 3 4 5 5 5 4 3 3 4 4 5 5 5 6 6 7 8 8 8 7 7 8
6 6 6 6 5 3 2 2 1 1 2 2 1 1 1 2 2 2 2 3 3 3 3 4 4 4 4 4 4 5 5 5 6 7 7 7 7 6 6 5 6 6 6 5 5 5 5 5 5 5 5 5 5 4 4 4 4 5 5 5 6 6 7 8 8 8 7 7 8
7 7 7 6 5 3 3 2 2 2 2 2 1 1 1 2 2 2 2 2 3 3 3 3 3 3 4 5 5 6 6 7 7 7 7 6 6 5 6 6 7 7 7 6 5 5 5 5 5 5 5 5 5 5 5 4 4 4 4 5 5 6 7 7 7 7 7 7 7
8 8 7 6 5 4 3 3 2 2 2 2 1 1 1 2 2 2 2 2 2 2 3 3 3 4 4 5 6 6 7 7 7 7 6 6 6 6 7 7 7 7 7 7 6 5 5 5 5 4 4 5 5 5 5 5 5 5 5 5 5 6 6 6 6 6 6 6 6
9 8 7 6 5 5 4 3 3 2 2 2 2 2 2 2 2 2 2 2 2 2 3 3 3 4 4 5 5 6 6 6 6 6 5 5 6 6 6 6 6 6 7 7 6 6 5 5 4 4 4 4 4 5 5 5 5 5 5 5 5 5 6 6 6 6 6 6 6
9 8 7 6 6 5 5 4 3 2 2 2 2 2 2 2 2 2 2 2 2 2 3 4 4 5 5 6 5 4 4 4 5 5 5 5 5 6 6 6 6 6 7 7 6 6 6 5 5 5 4 4 4 4 4 5 5 5 5 5 5 5 6 6 6 6 6 7 7
9 8 7 6 6 5 4 3 3 2 2 2 2 2 3 3 3 3 2 2 2 2 3 4 5 5 6 6 5 4 3 4 4 5 5 5 6 6 6 6 6 7 7 7 7 7 6 6 6 5 5 4 4 4 4 5 5 5 5 5 5 6 6 7 7 7 7 8 9
8 7 6 5 4 4 3 2 2 2 2 2 3 3 4 4 4 3 3 3 2 3 3 5 5 5 5 5 5 5 4 3 4 4 5 5 6 6 7 7 7 8 8 8 7 7 7 7 6 6 5 5 4 4 4 5 5 5 5 5 5 6 7 7 8 8 9 9 10
7 6 5 4 3 3 2 2 2 2 2 2 3 4 4 4 4 3 3 3 3 4 4 5 5 5 5 5 5 5 4 3 3 4 5 5 6 7 7 7 7 7 7 7 7 7 6 6 6 5 5 4 4 4 4 4 4 5 5 5 6 6 7 8 8 9 10 10 10
7 6 5 4 3 3 2 2 2 2 2 3 3 4 4 4 4 3 3 3 4 4 4 5 4 5 5 5 5 4 4 2 3 3 4 5 6 6 7 6 6 7 7 7 6 6 5 4 4 5 5 4 4 4 4 4 5 6 6 7 7 8 8 8 9 9 10 10 10
6 5 4 4 3 3 2 2 2 2 3 3 4 4 4 4 4 4 4 4 4 4 4 4 4 4 4 5 4 4 4 3 3 4 4 5 6 6 6 5 6 6 6 5 4 4 3 3 3 4 4 4 5 5 6 6 6 7 7 8 8 9 9 9 9 9 10 10 9
5 5 4 3 3 3 3 2 2 3 3 3 4 4 4 4 4 4 4 4 4 4 4 4 4 4 4 4 4 4 4 4 4 5 5 6 6 6 6 5 5 5 4 4 5 5 4 3 3 3 4 4 5 5 6 6 6 6 7 7 8 9 9 9 10 10 10 9 9
5 5 5 4 4 4 3 3 3 3 3 3 3 4 4 5 5 4 4 4 4 4 4 5 5 4 3 3 3 3 3 4 5 5 5 5 5 5 5 4 4 3 4 7 8 9 8 6 5 4 4 4 4 4 4 5 5 6 6 7 8 8 9 9 10 10 9 9 8
6 6 6 5 5 4 4 3 3 3 3 3 4 4 4 4 4 4 4 4 5 5 5 5 5 4 3 2 3 3 3 4 4 4 5 5 5 5 4 4 3 4 6 7 8 10 10 10 8 6 4 4 4 4 4 4 5 5 6 7 8 8 8 9 9 9 8 8 8
6 6 6 5 5 4 4 3 3 3 3 3 4 4 4 4 4 4 5 5 5 5 5 4 4 3 2 2 3 4 4 3 3 4 4 4 4 4 4 4 3 4 6 7 8 9 10 10 9 7 5 4 3 3 3 4 4 5 6 7 7 8 8 9 9 9 8 7 7
6 6 5 5 5 5 4 3 3 3 3 4 4 4 4 4 4 5 5 5 5 5 4 3 3 2 2 2 3 3 4 4 4 3 3 3 3 4 4 4 4 6 7 8 8 9 9 9 8 7 5 3 3 3 3 4 4 5 5 6 7 7 8 8 8 7 7 7 7
6 5 5 6 5 4 3 3 3 3 4 4 4 4 4 4 4 5 6 6 6 5 4 3 2 2 2 2 3 3 4 4 4 3 3 3 3 4 4 5 4 7 9 8 8 9 9 8 7 6 5 4 3 3 3 4 4 4 5 5 6 7 7 7 7 7 7 7 7
5 5 5 6 5 4 4 3 3 3 3 3 3 4 4 4 5 5 6 6 6 5 4 3 3 3 3 3 3 3 3 4 3 3 3 4 4 4 5 6 4 7 9 8 8 8 8 7 7 6 5 4 3 3 3 3 4 4 5 5 6 7 8 8 8 8 7 7 7
6 6 6 6 5 4 4 3 3 2 2 2 3 4 4 5 5 5 5 5 5 4 4 4 4 4 3 3 3 3 3 3 3 3 3 4 4 4 4 5 5 8 9 8 8 8 7 7 6 6 5 5 4 3 3 4 4 4 5 5 6 7 7 7 7 7 7 8 8
7 7 7 6 5 4 3 3 2 1 2 2 3 4 5 5 5 4 4 4 4 4 5 5 4 4 3 3 3 3 4 3 3 3 3 3 3 4 4 4 8 8 7 8 8 8 7 7 6 6 5 5 4 3 4 4 4 5 5 6 7 7 7 7 6 7 7 8 7
7 7 6 5 4 4 3 2 1 1 1 2 3 4 5 5 4 4 4 4 4 4 5 4 4 3 3 3 3 4 4 3 3 3 3 3 3 3 3 3 7 8 7 8 8 8 7 7 6 5 5 4 3 4 4 4 4 4 5 5 6 7 7 7 7 6 7 7 6
7 6 5 5 4 3 2 1 1 1 1 2 3 4 4 4 4 4 4 4 4 4 4 3 3 2 2 3 3 3 3 2 2 2 2 2 2 3 3 2 5 7 7 8 8 8 7 6 6 5 5 4 3 4 4 5 4 5 5 6 6 6 6 6 6 6 6 6 6
6 5 4 4 3 2 2 1 1 1 2 3 3 3 3 3 4 4 4 4 4 3 3 2 2 2 2 3 3 3 2 1 1 1 1 1 1 2 2 1 6 8 8 8 8 7 7 6 5 5 5 4 3 4 4 5 5 5 6 6 6 6 6 6 6 6 6 5 5
5 3 2 2 2 2 2 1 2 2 3 3 3 3 3 4 4 4 4 4 4 3 3 2 2 2 3 3 3 2 1 1 1 1 1 0 1 2 2 1 6 8 9 8 8 7 7 6 5 5 5 4 4 4 4 4 4 5 6 6 6 6 6 6 6 5 5 5 4
2 2 2 2 1 2 2 2 2 2 3 3 3 3 4 4 4 4 4 3 3 3 3 2 2 3 3 3 3 2 1 1 1 1 1 1 1 2 2 2 4 8 9 8 8 7 6 6 5 5 5 4 4 4 4 4 4 4 5 5 5 6 6 5 5 5 5 5 4
1 2 3 2 2 2 2 2 2 2 3 3 3 4 4 4 4 4 3 2 2 2 3 3 3 3 3 3 3 2 1 1 1 2 2 2 2 2 1 2 1 5 8 8 8 7 7 6 6 6 5 3 3 3 4 4 4 4 4 4 4 5 5 5 5 5 5 6 6
1 2 2 2 1 1 1 2 2 2 3 3 4 4 4 4 3 3 2 2 2 2 3 3 3 4 4 3 3 2 2 2 2 2 2 2 0 1 1 1 1 3 6 9 9 8 7 6 6 6 5 3 3 3 3 3 4 4 4 4 4 4 5 5 5 5 5 6 9
1 1 1 1 0 1 1 2 3 3 3 3 4 4 4 3 2 2 2 2 2 2 3 3 4 4 4 3 2 2 3 3 3 2 1 1 1 2 3 2 2 3 6 11 10 9 8 7 7 7 6 3 2 2 3 3 4 4 4 4 4 4 4 5 5 5 5 6 7
3 2 2 1 1 1 2 3 3 3 3 3 4 3 3 2 2 2 2 2 3 3 3 3 3 4 3 3 3 3 3 3 2 1 1 1 1 2 3 3 4 4 5 11 11 10 9 8 7 7 6 3 1 2 2 3 3 4 4 4 4 4 4 4 5 5 5 5 5
Wind_Direction
129 135 149 177 192 189 172 133 121 278 287 313 358 17 24 21 22 18 9 353 339 329 323 315 306 305 312 323 328 326 319 309 306 306 307 308 306 305 305 303 299 294 290 290 295 304 311 312 306 302 298 296 298 300 299 298 300 304 310 316 321 327 332 335 332 328 324 321 319
145 153 168 188 204 199 180 153 164 186 208 188 40 21 18 25 18 5 353 340 329 319 309 298 293 300 314 328 331 328 319 308 305 305 306 306 304 302 299 295 293 292 292 295 300 303 302 299 295 293 291 291 295 298 300 301 304 311 319 327 334 340 343 341 333 325 320 318 318
159 169 178 185 189 186 169 143 150 160 152 73 80 81 60 55 33 7 347 334 325 319 312 304 303 308 318 328 327 321 313 305 303 302 300 296 291 288 286 287 292 297 302 307 309 308 304 300 297 293 292 292 294 296 298 300 306 316 328 339 345 346 342 333 324 318 315 311 311
172 177 176 168 154 130 97 75 55 31 12 358 317 255 152 91 62 23 355 340 332 328 324 320 316 317 319 319 311 303 298 295 297 297 295 290 287 287 290 296 304 310 314 317 317 313 309 306 301 296 293 293 295 296 300 306 317 330 344 355 354 347 337 327 322 320 317 315 315
176 166 140 103 95 86 76 70 67 34 309 278 259 237 161 86 58 31 8 353 343 336 330 326 323 319 313 303 293 287 285 286 292 298 300 300 303 308 313 318 320 321 322 322 320 316 311 308 303 297 296 296 299 303 310 320 333 342 350 357 351 342 334 331 332 331 329 326 325
171 152 127 109 112 114 122 152 181 203 221 233 233 223 122 68 47 26 7 352 338 329 325 323 320 314 306 297 287 282 280 285 294 302 308 311 316 320 322 321 322 321 320 317 313 309 306 305 302 301 304 309 312 320 329 337 345 349 351 348 342 339 338 339 339 337 333 326 320
169 157 149 149 158 167 176 185 195 204 215 225 224 211 72 44 18 3 351 338 324 317 316 315 312 307 302 298 293 290 289 293 297 301 305 309 314 316 317 317 315 312 307 302 297 294 294 297 301 308 317 324 325 332 339 347 351 352 348 342 340 339 340 338 336 331 324 316 311
165 160 160 165 175 182 188 193 198 205 213 220 216 180 65 28 350 336 325 312 300 298 298 300 300 299 298 297 294 293 292 290 290 293 298 305 311 313 312 309 304 297 290 284 280 281 284 293 304 316 323 328 329 335 340 345 349 350 348 341 339 339 337 332 327 320 313 308 307
160 162 168 177 186 192 198 202 204 206 210 216 214 171 98 60 330 308 296 284 280 282 287 289 291 292 292 290 288 287 286 285 288 295 304 315 316 313 307 300 291 284 277 271 271 276 285 301 313 322 325 326 325 328 335 342 346 347 345 340 336 331 325 318 312 309 306 305 306
165 173 181 189 194 200 205 209 207 206 207 213 213 190 147 142 220 260 267 268 272 280 284 286 290 292 292 292 291 290 291 295 304 312 318 319 312 304 296 287 281 277 273 269 271 282 298 316 320 318 315 313 314 319 327 338 339 338 336 332 324 316 310 305 303 303 304 305 307
176 184 193 200 202 205 208 211 211 209 210 219 227 226 208 193 250 278 290 299 300 298 297 299 303 305 305 305 305 308 312 320 323 321 314 305 295 287 282 277 276 277 279 282 292 309 324 326 314 306 302 302 308 317 325 334 332 329 324 318 312 306 303 301 303 306 307 309 310
186 194 202 208 208 207 207 212 219 229 241 250 261 277 297 311 323 328 328 323 316 312 311 314 317 317 316 315 318 322 324 324 316 306 294 284 278 274 273 274 279 286 297 313 330 339 337 325 312 305 303 304 311 322 329 330 326 320 315 311 308 306 304 305 308 310 311 313 312
196 204 209 213 210 206 203 208 224 246 257 263 273 292 319 331 334 334 330 324 320 320 321 323 323 322 320 320 322 321 318 310 297 286 277 271 270 271 275 283 297 311 324 338 347 345 335 322 314 310 308 309 314 322 325 325 318 313 310 309 308 307 306 307 309 310 311 312 311
204 212 216 217 208 201 198 207 221 238 251 260 275 304 332 335 337 336 333 327 324 324 324 324 324 323 322 322 317 310 301 292 283 278 274 272 275 283 296 313 326 334 338 343 345 339 331 321 316 312 310 310 312 313 315 313 307 305 304 305 305 305 304 305 307 308 309 309 308
210 216 219 217 207 200 200 211 218 231 244 258 283 316 334 331 332 336 335 328 324 323 322 322 322 321 318 314 305 296 290 285 282 282 283 287 298 313 328 336 339 339 338 335 334 330 325 317 312 309 307 306 305 304 302 299 297 298 300 302 302 302 301 302 304 306 306 305 303
214 219 220 217 210 206 208 213 216 225 238 257 285 310 322 322 324 328 329 324 321 320 321 321 321 316 309 300 293 289 287 286 289 293 301 311 324 332 337 338 337 333 327 322 318 315 310 306 302 299 296 295 294 293 292 293 295 298 301 302 300 300 300 302 305 305 304 301 297
218 220 220 217 216 215 216 216 216 223 235 256 280 300 312 315 315 315 314 313 318 320 321 320 315 306 296 289 287 287 289 293 299 306 315 325 330 332 331 329 324 318 312 306 302 299 296 292 290 287 284 282 283 285 289 294 298 301 302 300 300 301 304 307 308 307 304 300 297
220 221 221 220 222 223 223 222 224 231 244 264 284 299 308 308 303 299 300 308 324 326 319 310 300 291 287 285 285 287 293 300 307 315 322 327 326 323 319 314 308 303 298 295 293 292 291 290 290 288 286 283 284 288 294 301 303 303 301 301 304 308 311 312 311 309 307 306 305
222 223 223 224 226 228 229 230 236 245 259 277 293 301 301 297 294 294 300 313 327 321 306 292 284 281 281 284 288 292 299 306 315 321 324 324 320 314 308 302 297 295 294 294 294 294 295 295 296 296 296 294 295 297 300 302 299 298 300 306 312 316 316 314 313 312 311 310 309
225 226 227 228 230 232 236 243 252 265 278 292 297 296 293 290 292 296 304 314 312 298 284 277 276 277 281 288 293 297 302 313 324 325 323 320 313 307 301 297 295 294 295 295 296 297 298 300 302 304 303 300 298 294 291 290 289 295 304 315 320 320 318 316 315 314 312 311 310
227 229 229 229 232 235 243 252 265 278 287 291 290 288 287 287 292 298 303 303 292 281 275 273 276 281 287 292 294 296 300 313 325 324 318 310 303 299 297 296 297 296 294 292 291 293 296 302 307 308 307 303 294 286 284 289 300 313 323 328 325 321 318 316 315 313 312 311 310
227 229 229 229 230 233 240 251 264 274 280 281 282 283 287 292 296 297 293 286 278 274 273 276 280 285 287 287 287 289 295 309 317 312 304 297 293 292 293 295 296 294 291 288 287 290 295 304 310 312 310 308 305 307 316 332 338 338 336 331 325 320 317 315 313 312 310 309 309
228 229 229 229 227 225 227 237 253 263 270 274 279 286 293 298 296 291 285 280 276 276 278 280 281 280 278 277 280 287 295 303 301 296 291 287 287 289 292 294 293 292 292 301 310 315 317 323 323 322 322 324 330 341 351 357 351 344 335 328 323 318 315 313 310 308 307 305 305
231 231 230 227 225 226 228 235 249 260 269 276 286 293 297 296 292 289 286 285 284 286 286 286 280 276 274 277 284 292 298 298 293 290 287 286 287 291 294 297 294 300 324 21 29 29 26 18 2 353 351 351 357 1 2 358 348 339 330 324 319 315 312 309 307 305 303 303 302
235 235 233 229 228 228 232 239 250 261 271 281 289 292 292 291 291 293 294 294 293 292 290 287 284 280 278 281 287 289 288 284 282 283 285 287 289 294 300 303 308 349 40 61 57 55 53 48 39 27 16 12 12 8 0 350 341 333 326 321 316 312 309 306 304 302 301 300 301
238 237 235 232 230 230 234 241 253 264 275 283 286 287 288 291 296 300 302 301 297 293 290 288 286 284 282 280 280 277 274 270 272 277 283 289 296 304 313 316 347 40 67 80 74 70 66 61 54 45 32 21 15 6 354 343 337 331 324 318 313 309 306 304 302 300 299 299 302
238 237 236 233 232 233 237 244 256 268 276 280 282 286 290 297 302 305 304 300 296 292 288 284 284 279 271 271 275 277 278 277 277 282 289 297 307 320 331 332 19 63 84 92 84 78 73 68 61 53 42 25 14 2 350 341 335 328 321 314 309 305 302 299 299 299 299 301 303
237 237 236 236 236 238 242 250 263 271 277 281 286 291 296 302 304 303 300 297 292 288 284 280 279 276 272 274 283 289 294 295 295 296 301 310 326 339 344 336 40 81 96 97 90 84 80 75 69 60 49 28 13 357 345 339 332 325 317 310 305 301 299 297 297 299 301 303 306
236 237 239 240 240 240 244 253 263 271 278 285 291 296 300 301 300 298 294 291 289 287 284 281 279 277 280 284 291 296 298 299 300 305 318 334 349 356 351 331 47 90 101 98 94 91 89 86 79 70 56 37 17 356 345 339 329 320 312 306 301 298 297 297 299 302 304 306 310
239 242 242 241 238 237 238 245 256 267 279 290 296 298 297 295 292 291 290 290 290 291 290 288 284 280 281 286 292 295 296 296 305 322 342 353 360 0 350 329 47 94 109 108 103 101 98 94 85 73 56 35 15 357 344 335 323 313 306 299 296 295 297 300 304 307 311 316 320
245 245 243 238 234 232 233 241 254 270 288 301 299 295 292 288 287 287 288 291 292 291 288 284 280 281 285 293 298 299 299 302 321 344 0 3 2 355 347 343 62 97 116 121 111 105 100 93 82 68 50 28 10 353 339 327 315 307 299 295 296 298 301 305 310 315 321 327 333
245 243 240 235 231 229 232 242 257 286 307 308 297 291 286 283 282 282 284 284 284 282 280 278 281 286 295 305 304 302 304 311 335 355 6 2 360 346 347 25 85 103 121 123 112 104 96 86 73 58 40 19 360 342 330 318 309 301 297 295 298 303 308 312 315 321 329 337 343
242 241 238 233 230 230 233 242 266 315 321 303 290 284 281 279 280 279 279 278 276 275 276 279 287 296 305 309 302 299 301 316 341 356 360 357 358 341 340 40 99 114 126 123 112 102 92 80 64 47 27 5 347 333 324 316 308 303 301 301 304 307 310 314 320 328 337 344 348
239 238 236 232 231 232 233 236 261 298 299 288 281 280 280 281 281 280 278 275 273 274 276 282 293 300 300 297 289 289 296 321 348 355 354 353 357 335 327 27 106 124 133 125 113 102 91 77 60 39 16 354 342 333 326 319 312 308 306 306 308 309 313 318 327 336 342 347 348
235 232 230 230 232 234 238 249 272 286 289 287 285 284 284 284 282 279 277 274 274 275 279 284 290 290 285 280 277 280 291 324 346 353 354 356 353 317 309 16 112 130 139 127 115 105 94 81 60 35 13 358 349 338 328 320 313 309 308 307 308 311 317 326 334 340 343 344 344
231 220 207 206 219 230 244 263 281 288 291 289 288 285 282 278 276 273 272 273 275 279 285 291 291 286 281 277 275 278 295 340 342 341 341 335 289 280 285 338 124 134 139 132 120 111 102 87 63 38 20 9 356 340 328 318 312 308 307 307 309 316 325 334 338 338 337 336 337
220 176 144 146 189 222 243 262 277 280 280 279 277 274 271 269 267 267 268 273 282 289 295 299 295 290 284 282 282 290 316 348 330 314 291 241 229 242 257 286 137 134 135 137 127 118 107 90 68 47 31 16 358 340 326 316 310 306 305 307 313 322 331 336 334 331 328 325 324
191 145 135 147 182 214 238 252 260 264 264 264 263 263 262 262 264 267 273 285 298 302 301 298 293 288 286 286 292 302 319 318 294 280 267 247 235 228 241 281 167 133 133 144 136 126 113 97 78 61 46 26 359 338 323 313 307 305 306 311 319 328 333 333 329 323 318 315 313
174 146 145 159 185 225 255 267 264 261 259 259 260 261 262 263 268 278 292 312 313 305 296 289 284 283 284 290 297 299 290 271 262 258 257 262 246 112 113 243 264 148 144 152 146 137 125 111 93 75 60 41 5 337 320 309 304 304 308 317 325 330 331 328 323 317 311 306 308
89 89 89 81 28 320 299 288 281 275 270 266 266 267 269 274 284 297 309 311 299 288 280 276 278 281 286 294 295 288 276 264 255 252 263 324 73 105 128 178 226 189 160 152 152 147 138 125 104 87 73 55 16 336 314 304 303 306 314 326 332 332 328 322 316 310 305 302 306
68 62 54 38 10 327 299 287 283 279 277 273 274 275 281 292 298 300 296 286 275 270 268 270 279 287 293 296 291 286 284 283 283 304 7 4 67 139 168 198 225 213 175 149 153 153 147 130 112 97 87 78 36 327 308 302 304 312 322 334 336 331 322 315 310 306 303 302 306